Location: Roanoke
(37.2710°N, 79.9420°W)
Time: 14:27:22
(UTC-05:00)

Courier 1B Rocket - Pass Details

Date: 17 November 2019
Orbit: 920 x 1202 km, 28.2° (Epoch: 12 December)

Event Time Altitude Azimuth Distance (km) Brightness Sun altitude
Rises 14:54:04 0° 222° (SW) 3,794 9.7 21.0°
Reaches altitude 10° 14:57:16 10° 209° (SSW) 2,892 9.3 20.6°
Maximum altitude 15:02:47 24° 158° (SSE) 2,103 7.2 19.8°
Drops below altitude 10° 15:08:34 10° 107° (ESE) 3,050 7.4 19.0°
Sets 15:12:02 0° 95° (E) 4,048 7.8 18.5°
